This is the latest recevied weather packets stored in our database for station/object K4DNM. If no packets are shown the sender has not sent any weather packets the latest 10 day(s).
| Time | Temp. | Humidity | Pressure | Rain* | Wind** | Luminosity | Snow |
|---|---|---|---|---|---|---|---|
| 1787943873 | 30.56° C | 68% | 1015 hPa | 0 mm | - | 326 W/m² | - |
| 1787943574 | 30.56° C | 69% | 1015.1 hPa | 0 mm | - | 910 W/m² | - |
| 1787943269 | 30° C | 74% | 1015.1 hPa | 0 mm | - | 268 W/m² | - |
| 1787942967 | 30° C | 71% | 1015.1 hPa | 0 mm | - | 171 W/m² | - |
| 1787942668 | 30.56° C | 69% | 1015.2 hPa | 0 mm | - | 174 W/m² | - |
| 1787942367 | 30° C | 72% | 1015.3 hPa | 0 mm | - | 253 W/m² | - |
| 1787942070 | 30° C | 71% | 1015.4 hPa | 0 mm | - | 519 W/m² | - |
| 1787941766 | 30° C | 72% | 1015.4 hPa | 0 mm | - | 302 W/m² | - |
| 1787941461 | 30.56° C | 70% | 1015.5 hPa | 0 mm | - | 249 W/m² | - |
| 1787941158 | 30.56° C | 71% | 1015.5 hPa | 0 mm | - | 277 W/m² | - |
| 1787940858 | 30.56° C | 70% | 1015.5 hPa | 0 mm | - | 218 W/m² | - |
| 1787940556 | 30.56° C | 70% | 1015.5 hPa | 0 mm | - | 577 W/m² | - |
| 1787940259 | 30° C | 71% | 1015.5 hPa | 0 mm | - | 957 W/m² | - |
| 1787939955 | 30° C | 72% | 1015.6 hPa | 0 mm | - | 954 W/m² | - |
| 1787939715 | 29.44° C | 72% | 1015.6 hPa | 0 mm | - | 867 W/m² | - |
| 1787939350 | 29.44° C | 72% | 1015.6 hPa | 0 mm | - | 820 W/m² | - |
| 1787939050 | 29.44° C | 75% | 1015.7 hPa | 0 mm | - | 600 W/m² | - |
| 1787938809 | 28.89° C | 74% | 1015.7 hPa | 0 mm | - | 182 W/m² | - |
| 1787938444 | 28.89° C | 74% | 1015.7 hPa | 0 mm | - | 228 W/m² | - |
| 1787938205 | 28.89° C | 75% | 1015.7 hPa | 0 mm | - | 343 W/m² | - |
| 1787937845 | 28.89° C | 75% | 1015.7 hPa | 0 mm | - | 431 W/m² | - |
| 1787937602 | 29.44° C | 74% | 1015.8 hPa | 0 mm | - | 220 W/m² | - |
| 1787937239 | 29.44° C | 73% | 1015.8 hPa | 0 mm | - | 252 W/m² | - |
| 1787936939 | 28.89° C | 74% | 1015.8 hPa | 0 mm | - | 713 W/m² | - |
| 1787936638 | 29.44° C | 73% | 1015.8 hPa | 0 mm | - | 975 W/m² | - |
* Rain latest hour (hover to see other rain measurements)
** Current wind speed in m/s (hover to see current wind gust speed)